N957GV KIAG-KBUF

Flight info

Callsign N957GV
Flight time 0h 20m
Altitude 2500
Route VFR W
Aircraft P06T/L-SBDGRY/S

Departure

Time 2026-05-06 17:37
Airport Niagara Falls International Airport (KIAG)

Arrival

Time 2026-05-06 17:58
Airport Buffalo Niagara International Airport (KBUF)
Time Latitude Longitude Altitude Speed Heading
2026-05-06 17:27 43.10028 -78.94494 581 ft 0 kts 180°
2026-05-06 17:34 43.10026 -78.94493 581 ft 0 kts 142°
2026-05-06 17:35 43.10040 -78.94488 581 ft 3 kts
2026-05-06 17:35 43.10068 -78.94488 581 ft 5 kts 351°
2026-05-06 17:35 43.10090 -78.94513 581 ft 3 kts 284°
2026-05-06 17:36 43.10090 -78.94536 581 ft 0 kts 271°
2026-05-06 17:36 43.10091 -78.94550 581 ft 4 kts 269°
2026-05-06 17:36 43.10097 -78.94617 581 ft 11 kts 280°
2026-05-06 17:36 43.10133 -78.94637 581 ft 0 kts 55°
2026-05-06 17:37 43.10244 -78.94456 581 ft 64 kts 53°
2026-05-06 17:37 43.10546 -78.93952 876 ft 67 kts 49°
2026-05-06 17:37 43.10909 -78.93372 1062 ft 94 kts 43°
2026-05-06 17:37 43.11451 -78.92932 1480 ft 95 kts 24°
2026-05-06 17:38 43.12136 -78.92456 1695 ft 107 kts 22°
2026-05-06 17:38 43.12835 -78.92304 2028 ft 110 kts 355°
2026-05-06 17:38 43.13576 -78.92590 2366 ft 100 kts 334°
2026-05-06 17:38 43.14074 -78.93147 2408 ft 88 kts 313°
2026-05-06 17:39 43.14432 -78.93808 2418 ft 102 kts 304°
2026-05-06 17:39 43.14749 -78.94737 2484 ft 109 kts 275°
2026-05-06 17:39 43.14677 -78.95754 2475 ft 107 kts 265°
2026-05-06 17:39 43.14579 -78.96722 2460 ft 99 kts 264°
2026-05-06 17:40 43.14470 -78.97649 2424 ft 96 kts 265°
2026-05-06 17:40 43.14379 -78.98521 2402 ft 93 kts 264°
2026-05-06 17:40 43.14273 -78.99390 2409 ft 90 kts 262°
2026-05-06 17:40 43.14145 -79.00212 2429 ft 86 kts 265°
2026-05-06 17:41 43.14056 -79.01116 2531 ft 104 kts 264°
2026-05-06 17:41 43.13912 -79.02238 2512 ft 127 kts 262°
2026-05-06 17:41 43.13714 -79.03437 2476 ft 126 kts 257°
2026-05-06 17:41 43.13469 -79.04551 2369 ft 109 kts 250°
2026-05-06 17:42 43.13089 -79.05267 2193 ft 95 kts 220°
2026-05-06 17:42 43.12436 -79.05287 1818 ft 98 kts 169°
2026-05-06 17:42 43.11789 -79.05105 1527 ft 87 kts 168°
2026-05-06 17:42 43.11176 -79.04921 1394 ft 93 kts 170°
2026-05-06 17:43 43.10568 -79.04826 1396 ft 79 kts 182°
2026-05-06 17:43 43.09997 -79.05094 1262 ft 84 kts 221°
2026-05-06 17:43 43.09596 -79.05723 1183 ft 83 kts 219°
2026-05-06 17:43 43.09130 -79.06185 1235 ft 81 kts 218°
2026-05-06 17:44 43.08608 -79.06344 1299 ft 78 kts 165°
2026-05-06 17:44 43.08255 -79.05780 1241 ft 87 kts 91°
2026-05-06 17:44 43.08598 -79.05233 1276 ft 88 kts 353°
2026-05-06 17:44 43.09201 -79.05647 1336 ft 120 kts 343°
2026-05-06 17:45 43.09712 -79.05194 1924 ft 99 kts 90°
2026-05-06 17:45 43.09401 -79.04219 2204 ft 107 kts 114°
2026-05-06 17:45 43.09123 -79.03326 2568 ft 112 kts 108°
2026-05-06 17:45 43.08946 -79.02278 3027 ft 94 kts 88°
2026-05-06 17:46 43.09119 -79.01405 3229 ft 110 kts 52°
2026-05-06 17:46 43.09663 -79.00871 3711 ft 90 kts
2026-05-06 17:46 43.10288 -79.00256 3432 ft 143 kts 58°
2026-05-06 17:46 43.10548 -78.99002 3403 ft 138 kts 100°
2026-05-06 17:47 43.09987 -78.98072 3503 ft 123 kts 137°
2026-05-06 17:47 43.09346 -78.97200 3318 ft 135 kts 131°
2026-05-06 17:47 43.08821 -78.96432 3609 ft 110 kts 132°
2026-05-06 17:47 43.08242 -78.95591 3397 ft 117 kts 133°
2026-05-06 17:48 43.07722 -78.94812 3300 ft 117 kts 129°
2026-05-06 17:48 43.07153 -78.93869 2812 ft 139 kts 124°
2026-05-06 17:48 43.06642 -78.92849 2295 ft 120 kts 120°
2026-05-06 17:48 43.06228 -78.91928 1919 ft 112 kts 119°
2026-05-06 17:49 43.05819 -78.91012 1509 ft 109 kts 120°
2026-05-06 17:49 43.05483 -78.90202 1403 ft 88 kts 118°
2026-05-06 17:49 43.05171 -78.89416 1426 ft 106 kts 117°
2026-05-06 17:49 43.04937 -78.88818 1467 ft 106 kts 116°
2026-05-06 17:50 43.04458 -78.87683 1509 ft 101 kts 118°
2026-05-06 17:50 43.04143 -78.86826 1528 ft 100 kts 114°
2026-05-06 17:50 43.03826 -78.85976 1521 ft 101 kts 117°
2026-05-06 17:50 43.03441 -78.85171 1528 ft 101 kts 124°
2026-05-06 17:51 43.03014 -78.84401 1534 ft 101 kts 125°
2026-05-06 17:51 43.02581 -78.83639 1539 ft 101 kts 130°
2026-05-06 17:51 43.02060 -78.82979 1536 ft 102 kts 140°
2026-05-06 17:51 43.01450 -78.82445 1512 ft 105 kts 145°
2026-05-06 17:52 43.00877 -78.81844 1528 ft 104 kts 141°
2026-05-06 17:52 43.00302 -78.81281 1484 ft 94 kts 145°
2026-05-06 17:52 42.99765 -78.80798 1391 ft 89 kts 146°
2026-05-06 17:52 42.99249 -78.80357 1312 ft 85 kts 148°
2026-05-06 17:53 42.98763 -78.79901 1251 ft 80 kts 133°
2026-05-06 17:53 42.98420 -78.79367 1238 ft 79 kts 124°
2026-05-06 17:53 42.98067 -78.78648 1255 ft 97 kts 123°
2026-05-06 17:53 42.97654 -78.77866 1410 ft 103 kts 121°
2026-05-06 17:54 42.97376 -78.76932 1521 ft 109 kts 109°
2026-05-06 17:54 42.97099 -78.75954 1619 ft 104 kts 109°
2026-05-06 17:54 42.96675 -78.75227 1538 ft 96 kts 138°
2026-05-06 17:54 42.96176 -78.74644 1465 ft 90 kts 137°
2026-05-06 17:55 42.95681 -78.74100 1387 ft 91 kts 137°
2026-05-06 17:55 42.95139 -78.73746 1389 ft 90 kts 184°
2026-05-06 17:55 42.94626 -78.74226 1351 ft 88 kts 224°
2026-05-06 17:55 42.94160 -78.74760 1276 ft 87 kts 218°
2026-05-06 17:56 42.93651 -78.75281 1134 ft 92 kts 217°
2026-05-06 17:56 42.93144 -78.75715 1139 ft 81 kts 209°
2026-05-06 17:56 42.92612 -78.75974 1155 ft 78 kts 169°
2026-05-06 17:56 42.92235 -78.75423 1230 ft 91 kts 122°
2026-05-06 17:57 42.92152 -78.74673 1291 ft 80 kts 23°
2026-05-06 17:57 42.92679 -78.74597 948 ft 72 kts
2026-05-06 17:57 42.93078 -78.74215 794 ft 70 kts 37°
2026-05-06 17:57 42.93416 -78.73789 728 ft 52 kts 44°
2026-05-06 17:58 42.93611 -78.73534 728 ft 21 kts 28°
2026-05-06 17:58 42.93686 -78.73450 728 ft 15 kts 51°
2026-05-06 17:58 42.93758 -78.73344 728 ft 18 kts 43°
2026-05-06 17:58 42.93883 -78.73286 728 ft 16 kts
2026-05-06 17:59 42.93993 -78.73286 728 ft 18 kts 355°
2026-05-06 17:59 42.94098 -78.73292 728 ft 13 kts 342°
2026-05-06 17:59 42.94146 -78.73367 728 ft 17 kts 306°
2026-05-06 17:59 42.94225 -78.73512 728 ft 22 kts 307°
2026-05-06 18:00 42.94334 -78.73712 728 ft 28 kts 307°
2026-05-06 18:00 42.94427 -78.73881 728 ft 19 kts 308°
2026-05-06 18:00 42.94529 -78.74069 728 ft 28 kts 306°
2026-05-06 18:00 42.94653 -78.74184 728 ft 21 kts 26°
2026-05-06 18:01 42.94750 -78.74028 728 ft 24 kts 94°
2026-05-06 18:01 42.94743 -78.73821 728 ft 20 kts 95°
2026-05-06 18:01 42.94673 -78.73628 728 ft 20 kts 119°
2026-05-06 18:01 42.94701 -78.73537 728 ft 9 kts 25°
2026-05-06 18:02 42.94703 -78.73480 728 ft 6 kts 117°
2026-05-06 18:02 42.94700 -78.73472 728 ft 0 kts 117°